Time,TemperatureF,DewpointF,PressureIn,WindDirection,WindDirectionDegrees,WindSpeedMPH,WindSpeedGustMPH,Humidity,HourlyPrecipIn,Conditions,Clouds,dailyrainin,SoftwareType,DateUTC
2013-01-12 00:03:00,38.5,37.5,29.36,SW,221,6.9,6.9,96,0.00,RA,,0.00,WeatherDisplay:10.37,2013-01-12 06:03:00,
2013-01-12 00:08:00,38.5,37.5,29.36,SW,223,5.8,5.8,96,0.00,RA,,0.00,WeatherDisplay:10.37,2013-01-12 06:08:00,
2013-01-12 00:13:00,38.2,37.2,29.36,SW,225,5.8,5.8,96,0.00,OVC,,0.00,WeatherDisplay:10.37,2013-01-12 06:13:00,
2013-01-12 00:18:00,38.0,37.0,29.36,SSW,195,6.9,6.9,96,0.00,OVC,,0.00,WeatherDisplay:10.37,2013-01-12 06:18:00,
2013-01-12 00:23:00,38.0,37.0,29.36,SW,219,4.6,4.6,96,0.00,OVC,,0.00,WeatherDisplay:10.37,2013-01-12 06:23:00,
2013-01-12 00:28:00,37.9,36.9,29.36,SW,221,4.6,4.6,96,0.00,OVC,,0.00,WeatherDisplay:10.37,2013-01-12 06:28:00,
2013-01-12 00:33:00,37.8,36.8,29.37,SW,236,6.9,6.9,96,0.00,OVC,,0.00,WeatherDisplay:10.37,2013-01-12 06:33:00,
2013-01-12 00:38:00,37.6,36.6,29.37,SW,225,13.8,13.8,96,0.00,OVC,,0.00,WeatherDisplay:10.37,2013-01-12 06:38:00,
2013-01-12 00:43:00,37.5,36.5,29.37,SSW,209,11.5,11.5,96,0.00,OVC,,0.00,WeatherDisplay:10.37,2013-01-12 06:43:00,
2013-01-12 00:48:00,37.3,36.3,29.37,SSW,211,8.1,8.1,96,0.00,OVC,,0.00,WeatherDisplay:10.37,2013-01-12 06:48:00,
2013-01-12 00:53:00,37.2,36.2,29.37,SW,222,5.0,5.0,96,0.00,OVC,,0.00,WeatherDisplay:10.37,2013-01-12 06:53:00,
2013-01-12 00:58:00,36.9,35.9,29.37,WSW,237,11.5,11.5,96,0.00,OVC,,0.00,WeatherDisplay:10.37,2013-01-12 06:58:00,
2013-01-12 01:03:00,36.8,35.8,29.39,SW,217,9.2,9.2,96,0.00,OVC,,0.00,WeatherDisplay:10.37,2013-01-12 07:03:00,
2013-01-12 01:08:00,36.6,35.6,29.39,WSW,243,10.4,10.4,96,0.00,OVC,,0.00,WeatherDisplay:10.37,2013-01-12 07:08:00,
2013-01-12 01:13:00,36.5,35.2,29.39,WNW,285,9.2,9.2,95,0.00,OVC,,0.00,WeatherDisplay:10.37,2013-01-12 07:13:00,
2013-01-12 01:18:00,36.0,34.7,29.41,West,276,17.3,17.3,95,0.00,OVC,,0.00,WeatherDisplay:10.37,2013-01-12 07:18:00,
2013-01-12 01:23:00,35.9,34.3,29.41,West,276,16.1,16.1,94,0.00,OVC,,0.00,WeatherDisplay:10.37,2013-01-12 07:23:00,
2013-01-12 01:28:00,35.6,33.8,29.41,SW,228,5.8,5.8,93,0.00,OVC,,0.00,WeatherDisplay:10.37,2013-01-12 07:28:00,
2013-01-12 01:33:00,35.5,33.7,29.41,WSW,240,5.8,5.8,93,0.00,OVC,,0.00,WeatherDisplay:10.37,2013-01-12 07:33:00,
2013-01-12 01:38:00,35.2,33.1,29.41,WSW,252,11.5,11.5,92,0.00,OVC,,0.00,WeatherDisplay:10.37,2013-01-12 07:38:00,
2013-01-12 01:43:00,34.9,32.8,29.41,WSW,244,10.4,10.4,92,0.00,OVC,,0.00,WeatherDisplay:10.37,2013-01-12 07:43:00,
2013-01-12 01:48:00,34.7,32.3,29.42,SW,236,13.8,13.8,91,0.00,OVC,,0.00,WeatherDisplay:10.37,2013-01-12 07:48:00,
2013-01-12 01:53:00,34.6,32.2,29.42,WSW,244,12.7,12.7,91,0.00,OVC,,0.00,WeatherDisplay:10.37,2013-01-12 07:53:00,
2013-01-12 01:58:00,34.4,31.8,29.42,West,265,6.9,6.9,90,0.00,OVC,,0.00,WeatherDisplay:10.37,2013-01-12 07:58:00,
2013-01-12 02:03:00,34.3,31.7,29.43,West,261,10.0,10.0,90,0.00,OVC,,0.00,WeatherDisplay:10.37,2013-01-12 08:03:00,
2013-01-12 02:08:00,34.1,31.5,29.43,SW,232,11.5,11.5,90,0.00,OVC,,0.00,WeatherDisplay:10.37,2013-01-12 08:08:00,
2013-01-12 02:13:00,33.2,30.3,29.43,West,261,11.5,11.5,89,0.00,OVC,,0.00,WeatherDisplay:10.37,2013-01-12 08:13:00,
2013-01-12 02:18:00,32.2,29.3,29.44,SW,236,11.5,11.5,89,0.00,OVC,,0.00,WeatherDisplay:10.37,2013-01-12 08:18:00,
2013-01-12 02:23:00,31.3,28.4,29.44,West,262,19.6,19.6,89,0.00,OVC,,0.00,WeatherDisplay:10.37,2013-01-12 08:23:00,
2013-01-12 02:28:00,30.6,27.7,29.44,SW,232,16.1,16.1,89,0.00,OVC,,0.00,WeatherDisplay:10.37,2013-01-12 08:28:00,
2013-01-12 02:33:00,30.1,27.3,29.47,West,269,13.8,13.8,89,0.00,OVC,,0.00,WeatherDisplay:10.37,2013-01-12 08:33:00,
2013-01-12 02:38:00,29.4,26.6,29.47,SSW,208,19.6,19.6,89,0.00,OVC,,0.00,WeatherDisplay:10.37,2013-01-12 08:38:00,
2013-01-12 02:43:00,28.8,25.7,29.47,West,268,12.7,12.7,88,0.00,OVC,,0.00,WeatherDisplay:10.37,2013-01-12 08:43:00,
2013-01-12 02:48:00,28.4,25.3,29.48,NW,310,17.3,17.3,88,0.00,OVC,,0.00,WeatherDisplay:10.37,2013-01-12 08:48:00,
2013-01-12 02:54:00,28.1,24.7,29.48,West,269,12.7,12.7,87,0.00,OVC,,0.00,WeatherDisplay:10.37,2013-01-12 08:54:00,
2013-01-12 02:59:00,27.2,23.6,29.48,West,276,17.3,17.3,86,0.00,OVC,,0.00,WeatherDisplay:10.37,2013-01-12 08:59:00,
2013-01-12 03:04:00,26.7,23.1,29.49,WSW,257,9.2,9.2,86,0.00,OVC,,0.00,WeatherDisplay:10.37,2013-01-12 09:04:00,
2013-01-12 03:09:00,26.4,22.8,29.49,West,279,12.7,12.7,86,0.00,OVC,,0.00,WeatherDisplay:10.37,2013-01-12 09:09:00,
2013-01-12 03:14:00,26.3,22.7,29.49,WSW,247,14.0,14.0,86,0.00,OVC,,0.00,WeatherDisplay:10.37,2013-01-12 09:14:00,
2013-01-12 03:19:00,26.0,22.1,29.50,West,263,23.0,23.0,85,0.00,OVC,,0.00,WeatherDisplay:10.37,2013-01-12 09:19:00,
2013-01-12 03:24:00,26.0,22.1,29.50,WSW,249,19.6,19.6,85,0.00,OVC,,0.00,WeatherDisplay:10.37,2013-01-12 09:24:00,
2013-01-12 03:29:00,26.0,22.1,29.50,West,270,12.7,12.7,85,0.00,OVC,,0.00,WeatherDisplay:10.37,2013-01-12 09:29:00,
2013-01-12 03:34:00,26.0,21.8,29.51,WSW,256,11.5,11.5,84,0.00,OVC,,0.00,WeatherDisplay:10.37,2013-01-12 09:34:00,
2013-01-12 03:39:00,25.8,21.3,29.51,WSW,247,19.6,19.6,83,0.00,OVC,,0.00,WeatherDisplay:10.37,2013-01-12 09:39:00,
2013-01-12 03:44:00,25.8,21.3,29.51,West,269,19.0,19.0,83,0.00,OVC,,0.00,WeatherDisplay:10.37,2013-01-12 09:44:00,
2013-01-12 03:49:00,25.4,21.0,29.53,West,275,15.0,15.0,83,0.00,OVC,,0.00,WeatherDisplay:10.37,2013-01-12 09:49:00,
2013-01-12 03:54:00,25.1,20.4,29.53,West,263,15.0,15.0,82,0.00,OVC,,0.00,WeatherDisplay:10.37,2013-01-12 09:54:00,
2013-01-12 03:59:00,24.5,19.2,29.53,SW,215,16.1,16.1,80,0.00,OVC,,0.00,WeatherDisplay:10.37,2013-01-12 09:59:00,
2013-01-12 04:04:00,23.8,17.6,29.54,WSW,244,23.0,23.0,77,0.00,OVC,,0.00,WeatherDisplay:10.37,2013-01-12 10:04:00,
2013-01-12 04:09:00,23.3,16.9,29.54,South,175,12.7,12.7,76,0.00,OVC,,0.00,WeatherDisplay:10.37,2013-01-12 10:09:00,
2013-01-12 04:14:00,23.2,16.8,29.54,SW,228,16.1,16.1,76,0.00,OVC,,0.00,WeatherDisplay:10.37,2013-01-12 10:14:00,
2013-01-12 04:19:00,22.9,16.2,29.55,SSW,199,18.4,18.4,75,0.00,OVC,,0.00,WeatherDisplay:10.37,2013-01-12 10:19:00,
2013-01-12 04:24:00,22.4,15.4,29.55,West,275,19.6,19.6,74,0.00,OVC,,0.00,WeatherDisplay:10.37,2013-01-12 10:24:00,
2013-01-12 04:29:00,21.9,14.9,29.55,WNW,286,21.9,21.9,74,0.00,OVC,,0.00,WeatherDisplay:10.37,2013-01-12 10:29:00,
2013-01-12 04:34:00,21.4,14.4,29.57,NNE,31,16.1,16.1,74,0.00,OVC,,0.00,WeatherDisplay:10.37,2013-01-12 10:34:00,
2013-01-12 04:39:00,21.0,14.0,29.57,WSW,253,21.0,21.0,74,0.00,OVC,,0.00,WeatherDisplay:10.37,2013-01-12 10:39:00,
2013-01-12 04:44:00,20.5,13.2,29.57,WSW,246,25.3,25.3,73,0.00,OVC,,0.00,WeatherDisplay:10.37,2013-01-12 10:44:00,
2013-01-12 04:49:00,20.3,13.3,29.58,SW,236,19.6,19.6,74,0.00,OVC,,0.00,WeatherDisplay:10.37,2013-01-12 10:49:00,
2013-01-12 04:54:00,20.2,13.2,29.58,West,267,21.9,21.9,74,0.00,OVC,,0.00,WeatherDisplay:10.37,2013-01-12 10:54:00,
2013-01-12 04:59:00,20.0,13.0,29.58,SW,227,24.2,24.2,74,0.00,OVC,,0.00,WeatherDisplay:10.37,2013-01-12 10:59:00,
2013-01-12 05:04:00,19.7,12.8,29.59,West,263,25.3,25.3,74,0.00,OVC,,0.00,WeatherDisplay:10.37,2013-01-12 11:04:00,
2013-01-12 05:09:00,19.7,12.8,29.59,WSW,240,12.7,12.7,74,0.00,OVC,,0.00,WeatherDisplay:10.37,2013-01-12 11:09:00,
2013-01-12 05:14:00,19.5,12.3,29.59,WNW,284,18.4,18.4,73,0.00,OVC,,0.00,WeatherDisplay:10.37,2013-01-12 11:14:00,
2013-01-12 05:19:00,19.1,11.9,29.61,SW,214,17.3,17.3,73,0.00,OVC,,0.00,WeatherDisplay:10.37,2013-01-12 11:19:00,
2013-01-12 05:24:00,19.1,11.9,29.61,WSW,238,19.6,19.6,73,0.00,OVC,,0.00,WeatherDisplay:10.37,2013-01-12 11:24:00,
2013-01-12 05:29:00,18.9,11.7,29.61,SW,229,16.1,16.1,73,0.00,OVC,,0.00,WeatherDisplay:10.37,2013-01-12 11:29:00,
2013-01-12 05:34:00,18.8,11.6,29.62,SW,236,18.0,18.0,73,0.00,-SN,,0.00,WeatherDisplay:10.37,2013-01-12 11:34:00,
2013-01-12 05:39:00,18.8,11.6,29.62,West,271,17.0,17.0,73,0.00,-SN,,0.00,WeatherDisplay:10.37,2013-01-12 11:39:00,
2013-01-12 05:44:00,18.6,11.7,29.62,SSW,200,11.5,11.5,74,0.00,-SN,,0.00,WeatherDisplay:10.37,2013-01-12 11:44:00,
2013-01-12 05:49:00,18.6,11.7,29.64,WSW,249,13.8,13.8,74,0.00,OVC,,0.00,WeatherDisplay:10.37,2013-01-12 11:49:00,
2013-01-12 05:54:00,18.6,12.3,29.64,NNW,335,16.0,16.0,76,0.00,OVC,,0.00,WeatherDisplay:10.37,2013-01-12 11:54:00,
2013-01-12 05:59:00,18.6,12.3,29.64,SW,232,13.8,13.8,76,0.00,OVC,,0.00,WeatherDisplay:10.37,2013-01-12 11:59:00,
2013-01-12 06:04:00,18.8,12.2,29.66,WNW,284,18.4,18.4,75,0.00,-SN,,0.00,WeatherDisplay:10.37,2013-01-12 12:04:00,
2013-01-12 06:09:00,18.8,12.5,29.66,WNW,284,10.4,10.4,76,0.00,-SN,,0.00,WeatherDisplay:10.37,2013-01-12 12:09:00,
2013-01-12 06:14:00,18.8,12.5,29.66,SSW,202,11.5,11.5,76,0.00,-SN,,0.00,WeatherDisplay:10.37,2013-01-12 12:14:00,
2013-01-12 06:19:00,18.6,12.6,29.67,WNW,299,13.0,13.0,77,0.00,-SN,,0.00,WeatherDisplay:10.37,2013-01-12 12:19:00,
2013-01-12 06:24:00,17.8,12.4,29.67,SW,229,20.7,20.7,79,0.00,-SN,,0.00,WeatherDisplay:10.37,2013-01-12 12:24:00,
2013-01-12 06:29:00,17.3,11.6,29.67,West,261,18.4,18.4,78,0.00,-SN,,0.00,WeatherDisplay:10.37,2013-01-12 12:29:00,
2013-01-12 06:34:00,17.3,11.3,29.68,WSW,254,13.8,13.8,77,0.00,OVC,,0.00,WeatherDisplay:10.37,2013-01-12 12:34:00,
2013-01-12 06:39:00,17.2,10.9,29.68,WSW,251,12.7,12.7,76,0.00,OVC,,0.00,WeatherDisplay:10.37,2013-01-12 12:39:00,
2013-01-12 06:44:00,17.2,10.6,29.68,WSW,244,10.4,10.4,75,0.00,OVC,,0.00,WeatherDisplay:10.37,2013-01-12 12:44:00,
2013-01-12 06:49:00,17.2,10.6,29.69,WSW,245,10.4,10.4,75,0.00,-SN,,0.00,WeatherDisplay:10.37,2013-01-12 12:49:00,
2013-01-12 06:54:00,17.2,10.6,29.69,West,274,16.1,16.1,75,0.00,-SN,,0.00,WeatherDisplay:10.37,2013-01-12 12:54:00,
2013-01-12 06:59:00,17.2,10.6,29.69,WNW,302,7.0,7.0,75,0.00,-SN,,0.00,WeatherDisplay:10.37,2013-01-12 12:59:00,
2013-01-12 07:04:00,17.2,10.9,29.70,WSW,251,15.0,15.0,76,0.00,-SN,,0.00,WeatherDisplay:10.37,2013-01-12 13:04:00,
2013-01-12 07:09:00,17.0,11.0,29.70,West,259,11.5,11.5,77,0.00,-SN,,0.00,WeatherDisplay:10.37,2013-01-12 13:09:00,
2013-01-12 07:14:00,17.0,11.6,29.70,WNW,294,11.5,11.5,79,0.00,-SN,,0.00,WeatherDisplay:10.37,2013-01-12 13:14:00,
2013-01-12 07:19:00,16.7,11.6,29.72,WNW,289,11.5,11.5,80,0.00,-SN,,0.00,WeatherDisplay:10.37,2013-01-12 13:19:00,
2013-01-12 07:24:00,16.2,11.1,29.72,West,265,11.5,11.5,80,0.00,-SN,,0.00,WeatherDisplay:10.37,2013-01-12 13:24:00,
2013-01-12 07:29:00,15.9,10.0,29.72,WSW,251,10.4,10.4,77,0.00,-SN,,0.00,WeatherDisplay:10.37,2013-01-12 13:29:00,
2013-01-12 07:34:00,15.9,9.7,29.74,WSW,254,5.8,5.8,76,0.00,-SN,,0.00,WeatherDisplay:10.37,2013-01-12 13:34:00,
2013-01-12 07:39:00,15.7,9.5,29.74,NW,309,6.9,6.9,76,0.00,-SN,,0.00,WeatherDisplay:10.37,2013-01-12 13:39:00,
2013-01-12 07:44:00,15.6,9.1,29.74,NW,306,12.0,12.0,75,0.00,-SN,,0.00,WeatherDisplay:10.37,2013-01-12 13:44:00,
2013-01-12 07:49:00,15.4,8.9,29.75,WNW,292,10.4,10.4,75,0.00,-SN,,0.00,WeatherDisplay:10.37,2013-01-12 13:49:00,
2013-01-12 07:54:00,15.4,8.9,29.75,WSW,250,10.4,10.4,75,0.00,-SN,,0.00,WeatherDisplay:10.37,2013-01-12 13:54:00,
2013-01-12 07:59:00,15.2,8.4,29.75,West,269,10.4,10.4,74,0.00,-SN,,0.00,WeatherDisplay:10.37,2013-01-12 13:59:00,
2013-01-12 08:04:00,15.1,8.0,29.75,WNW,290,10.0,10.0,73,0.00,-SN,,0.00,WeatherDisplay:10.37,2013-01-12 14:04:00,
2013-01-12 08:09:00,14.8,7.4,29.75,WNW,298,18.4,18.4,72,0.00,-SN,,0.00,WeatherDisplay:10.37,2013-01-12 14:09:00,
2013-01-12 08:14:00,14.8,7.7,29.75,SW,219,6.9,6.9,73,0.00,-SN,,0.00,WeatherDisplay:10.37,2013-01-12 14:14:00,
2013-01-12 08:19:00,14.6,7.8,29.77,West,272,13.8,13.8,74,0.00,-SN,,0.00,WeatherDisplay:10.37,2013-01-12 14:19:00,
2013-01-12 08:24:00,14.4,7.3,29.77,West,260,6.9,6.9,73,0.00,-SN,,0.00,WeatherDisplay:10.37,2013-01-12 14:24:00,
2013-01-12 08:29:00,14.1,6.7,29.77,WSW,247,12.7,12.7,72,0.00,-SN,,0.00,WeatherDisplay:10.37,2013-01-12 14:29:00,
2013-01-12 08:34:00,14.0,6.9,29.78,West,269,8.0,8.0,73,0.00,-SN,,0.00,WeatherDisplay:10.37,2013-01-12 14:34:00,
2013-01-12 08:39:00,13.8,6.4,29.78,SSW,213,11.5,11.5,72,0.00,-SN,,0.00,WeatherDisplay:10.37,2013-01-12 14:39:00,
2013-01-12 08:44:00,13.8,6.4,29.78,West,264,11.5,11.5,72,0.00,-SN,,0.00,WeatherDisplay:10.37,2013-01-12 14:44:00,
2013-01-12 08:49:00,13.8,6.4,29.80,WSW,240,13.8,13.8,72,0.00,-SN,,0.00,WeatherDisplay:10.37,2013-01-12 14:49:00,
2013-01-12 08:54:00,13.6,6.5,29.80,West,259,12.0,12.0,73,0.00,-SN,,0.00,WeatherDisplay:10.37,2013-01-12 14:54:00,
2013-01-12 08:59:00,13.5,6.5,29.80,WSW,258,12.0,12.0,73,0.00,-SN,,0.00,WeatherDisplay:10.37,2013-01-12 14:59:00,
2013-01-12 09:04:00,13.3,6.3,29.80,SW,225,11.5,11.5,73,0.00,OVC,,0.00,WeatherDisplay:10.37,2013-01-12 15:04:00,
2013-01-12 09:09:00,13.3,6.3,29.80,SW,235,6.0,6.0,73,0.00,OVC,,0.00,WeatherDisplay:10.37,2013-01-12 15:09:00,
2013-01-12 09:14:00,13.5,6.1,29.80,SW,223,10.4,10.4,72,0.00,OVC,,0.00,WeatherDisplay:10.37,2013-01-12 15:14:00,
2013-01-12 09:19:00,13.3,5.6,29.81,West,276,6.9,6.9,71,0.00,OVC,,0.00,WeatherDisplay:10.37,2013-01-12 15:19:00,
2013-01-12 09:24:00,13.1,5.1,29.81,WSW,246,17.3,17.3,70,0.00,OVC,,0.00,WeatherDisplay:10.37,2013-01-12 15:24:00,
2013-01-12 09:29:00,13.1,5.1,29.81,West,281,9.2,9.2,70,0.00,OVC,,0.00,WeatherDisplay:10.37,2013-01-12 15:29:00,
2013-01-12 09:34:00,12.9,5.0,29.83,WSW,241,11.5,11.5,70,0.00,-SN,,0.00,WeatherDisplay:10.37,2013-01-12 15:34:00,
2013-01-12 09:39:00,12.9,5.0,29.83,WSW,244,9.2,9.2,70,0.00,-SN,,0.00,WeatherDisplay:10.37,2013-01-12 15:39:00,
2013-01-12 09:44:00,12.6,4.7,29.83,West,267,10.4,10.4,70,0.00,-SN,,0.00,WeatherDisplay:10.37,2013-01-12 15:44:00,
2013-01-12 09:49:00,12.9,5.0,29.83,West,281,11.5,11.5,70,0.00,BKN,,0.00,WeatherDisplay:10.37,2013-01-12 15:49:00,
2013-01-12 09:54:00,13.5,5.8,29.83,West,265,10.4,10.4,71,0.00,BKN,,0.00,WeatherDisplay:10.37,2013-01-12 15:54:00,
2013-01-12 09:59:00,14.0,6.0,29.83,West,261,11.5,11.5,70,0.00,BKN,,0.00,WeatherDisplay:10.37,2013-01-12 15:59:00,
2013-01-12 10:04:00,14.0,6.0,29.84,West,271,10.4,10.4,70,0.00,SCT,,0.00,WeatherDisplay:10.37,2013-01-12 16:04:00,
2013-01-12 10:09:00,14.1,6.4,29.84,WNW,285,19.6,19.6,71,0.00,SCT,,0.00,WeatherDisplay:10.37,2013-01-12 16:09:00,
2013-01-12 10:14:00,13.8,6.1,29.84,WNW,290,13.8,13.8,71,0.00,SCT,,0.00,WeatherDisplay:10.37,2013-01-12 16:14:00,
2013-01-12 10:19:00,13.6,5.6,29.84,WNW,290,20.7,20.7,70,0.00,SCT,,0.00,WeatherDisplay:10.37,2013-01-12 16:19:00,
2013-01-12 10:24:00,13.6,5.0,29.84,WSW,238,13.8,13.8,68,0.00,SCT,,0.00,WeatherDisplay:10.37,2013-01-12 16:24:00,
2013-01-12 10:29:00,13.8,4.9,29.84,West,261,15.0,15.0,67,0.00,SCT,,0.00,WeatherDisplay:10.37,2013-01-12 16:29:00,
2013-01-12 10:34:00,13.6,4.0,29.86,WSW,242,15.0,15.0,65,0.00,BKN,,0.00,WeatherDisplay:10.37,2013-01-12 16:34:00,
2013-01-12 10:39:00,13.5,4.2,29.86,West,266,19.6,19.6,66,0.00,BKN,,0.00,WeatherDisplay:10.37,2013-01-12 16:39:00,
2013-01-12 10:44:00,14.0,4.7,29.86,WNW,286,18.4,18.4,66,0.00,BKN,,0.00,WeatherDisplay:10.37,2013-01-12 16:44:00,
2013-01-12 10:49:00,14.1,4.1,29.87,West,280,14.0,14.0,64,0.00,OVC,,0.00,WeatherDisplay:10.37,2013-01-12 16:49:00,
2013-01-12 10:54:00,14.8,5.2,29.87,WSW,257,4.6,5.4,65,0.00,OVC,,0.00,WeatherDisplay:10.37,2013-01-12 16:54:00,
2013-01-12 10:59:00,14.4,4.1,29.87,WSW,245,11.5,11.5,63,0.00,OVC,,0.00,WeatherDisplay:10.37,2013-01-12 16:59:00,
2013-01-12 11:04:00,14.1,4.1,29.87,West,270,10.0,10.0,64,0.00,BKN,,0.00,WeatherDisplay:10.37,2013-01-12 17:04:00,
2013-01-12 11:09:00,13.6,4.0,29.87,WSW,248,14.0,14.0,65,0.00,BKN,,0.00,WeatherDisplay:10.37,2013-01-12 17:09:00,
2013-01-12 11:14:00,13.5,4.2,29.87,WNW,282,11.5,11.5,66,0.00,BKN,,0.00,WeatherDisplay:10.37,2013-01-12 17:14:00,
2013-01-12 11:19:00,13.3,3.0,29.88,WSW,252,16.1,16.1,63,0.00,BKN,,0.00,WeatherDisplay:10.37,2013-01-12 17:19:00,
2013-01-12 11:24:00,13.5,2.9,29.88,WNW,292,16.1,16.1,62,0.00,BKN,,0.00,WeatherDisplay:10.37,2013-01-12 17:24:00,
2013-01-12 11:29:00,13.5,2.9,29.88,West,281,13.8,13.8,62,0.00,BKN,,0.00,WeatherDisplay:10.37,2013-01-12 17:29:00,
2013-01-12 11:34:00,13.1,3.2,29.87,West,276,11.5,11.5,64,0.00,BKN,,0.00,WeatherDisplay:10.37,2013-01-12 17:34:00,
2013-01-12 11:39:00,13.5,3.6,29.87,WSW,252,17.0,17.0,64,0.00,BKN,,0.00,WeatherDisplay:10.37,2013-01-12 17:39:00,
2013-01-12 11:44:00,13.8,3.9,29.87,SSW,213,11.5,11.5,64,0.00,BKN,,0.00,WeatherDisplay:10.37,2013-01-12 17:44:00,
2013-01-12 11:49:00,13.8,3.9,29.87,West,277,12.7,12.7,64,0.00,BKN,,0.00,WeatherDisplay:10.37,2013-01-12 17:49:00,
2013-01-12 11:54:00,13.1,4.2,29.87,SSW,211,16.0,16.0,67,0.00,BKN,,0.00,WeatherDisplay:10.37,2013-01-12 17:54:00,
2013-01-12 11:59:00,12.4,3.2,29.87,West,271,13.8,13.8,66,0.00,BKN,,0.00,WeatherDisplay:10.37,2013-01-12 17:59:00,
2013-01-12 12:04:00,12.4,2.9,29.88,West,275,11.5,11.5,65,0.00,OVC,,0.00,WeatherDisplay:10.37,2013-01-12 18:04:00,
2013-01-12 12:09:00,12.6,3.1,29.88,WNW,303,11.0,11.0,65,0.00,OVC,,0.00,WeatherDisplay:10.37,2013-01-12 18:09:00,
2013-01-12 12:14:00,12.8,3.6,29.88,WSW,242,11.5,11.5,66,0.00,OVC,,0.00,WeatherDisplay:10.37,2013-01-12 18:14:00,
2013-01-12 12:19:00,12.9,3.3,29.88,West,259,5.8,5.8,65,0.00,OVC,,0.00,WeatherDisplay:10.37,2013-01-12 18:19:00,
2013-01-12 12:24:00,13.5,3.9,29.88,SW,217,9.2,9.2,65,0.00,OVC,,0.00,WeatherDisplay:10.37,2013-01-12 18:24:00,
2013-01-12 12:29:00,14.1,4.8,29.88,WSW,248,11.5,11.5,66,0.00,OVC,,0.00,WeatherDisplay:10.37,2013-01-12 18:29:00,
2013-01-12 12:34:00,14.0,4.7,29.88,West,281,11.5,11.5,66,0.00,OVC,,0.00,WeatherDisplay:10.37,2013-01-12 18:34:00,
2013-01-12 12:39:00,13.8,4.5,29.88,West,264,10.4,10.4,66,0.00,OVC,,0.00,WeatherDisplay:10.37,2013-01-12 18:39:00,
2013-01-12 12:44:00,13.8,2.8,29.88,West,272,25.3,25.3,61,0.00,OVC,,0.00,WeatherDisplay:10.37,2013-01-12 18:44:00,
2013-01-12 12:49:00,14.1,2.7,29.88,NW,319,12.7,12.7,60,0.00,OVC,,0.00,WeatherDisplay:10.37,2013-01-12 18:49:00,
2013-01-12 12:54:00,14.0,3.4,29.88,West,265,12.7,12.7,62,0.00,OVC,,0.00,WeatherDisplay:10.37,2013-01-12 18:54:00,
2013-01-12 12:59:00,14.3,3.6,29.88,NW,316,9.2,9.2,62,0.00,OVC,,0.00,WeatherDisplay:10.37,2013-01-12 18:59:00,
2013-01-12 13:04:00,14.6,3.6,29.90,WSW,238,10.4,10.4,61,0.00,BKN,,0.00,WeatherDisplay:10.37,2013-01-12 19:04:00,
2013-01-12 13:09:00,14.6,3.2,29.90,SW,235,12.0,12.0,60,0.00,BKN,,0.00,WeatherDisplay:10.37,2013-01-12 19:09:00,
2013-01-12 13:14:00,14.1,2.7,29.90,WSW,252,13.8,13.8,60,0.00,BKN,,0.00,WeatherDisplay:10.37,2013-01-12 19:14:00,
2013-01-12 13:19:00,14.1,2.7,29.91,West,267,16.1,16.1,60,0.00,BKN,,0.00,WeatherDisplay:10.37,2013-01-12 19:19:00,
2013-01-12 13:24:00,13.6,2.6,29.91,SW,224,11.5,11.5,61,0.00,BKN,,0.00,WeatherDisplay:10.37,2013-01-12 19:24:00,
2013-01-12 13:29:00,13.8,3.2,29.91,WSW,244,16.0,16.0,62,0.00,BKN,,0.00,WeatherDisplay:10.37,2013-01-12 19:29:00,
2013-01-12 13:34:00,13.5,2.9,29.92,SW,219,11.5,11.5,62,0.00,BKN,,0.00,WeatherDisplay:10.37,2013-01-12 19:34:00,
2013-01-12 13:39:00,13.8,2.8,29.92,SW,222,19.6,19.6,61,0.00,BKN,,0.00,WeatherDisplay:10.37,2013-01-12 19:39:00,
2013-01-12 13:44:00,13.6,2.3,29.92,SW,234,13.8,13.8,60,0.00,BKN,,0.00,WeatherDisplay:10.37,2013-01-12 19:44:00,
2013-01-12 13:49:00,13.5,2.9,29.93,West,271,15.0,15.0,62,0.00,OVC,,0.00,WeatherDisplay:10.37,2013-01-12 19:49:00,
2013-01-12 13:54:00,13.1,3.2,29.93,NW,310,11.5,11.5,64,0.00,OVC,,0.00,WeatherDisplay:10.37,2013-01-12 19:54:00,
2013-01-12 13:59:00,12.8,3.2,29.93,WSW,257,10.4,10.4,65,0.00,OVC,,0.00,WeatherDisplay:10.37,2013-01-12 19:59:00,
2013-01-12 14:04:00,12.9,3.3,29.92,WSW,248,11.0,11.0,65,0.00,OVC,,0.00,WeatherDisplay:10.37,2013-01-12 20:04:00,
2013-01-12 14:09:00,13.1,3.2,29.92,SW,229,12.7,12.7,64,0.00,OVC,,0.00,WeatherDisplay:10.37,2013-01-12 20:09:00,
2013-01-12 14:14:00,12.9,2.3,29.92,West,278,11.0,11.0,62,0.00,OVC,,0.00,WeatherDisplay:10.37,2013-01-12 20:14:00,
2013-01-12 14:19:00,12.4,1.5,29.92,West,266,14.0,14.0,61,0.00,OVC,,0.00,WeatherDisplay:10.37,2013-01-12 20:19:00,
2013-01-12 14:24:00,12.4,2.2,29.92,West,267,13.8,13.8,63,0.00,OVC,,0.00,WeatherDisplay:10.37,2013-01-12 20:24:00,
2013-01-12 14:29:00,12.1,1.9,29.92,WNW,290,13.8,13.8,63,0.00,OVC,,0.00,WeatherDisplay:10.37,2013-01-12 20:29:00,
2013-01-12 14:34:00,12.1,2.2,29.93,SW,228,13.8,13.8,64,0.00,BKN,,0.00,WeatherDisplay:10.37,2013-01-12 20:34:00,
2013-01-12 14:39:00,12.9,3.0,29.92,WSW,245,11.0,11.0,64,0.00,BKN,,0.00,WeatherDisplay:10.37,2013-01-12 20:39:00,
2013-01-12 14:44:00,13.5,2.5,29.92,NW,306,18.4,18.4,61,0.00,BKN,,0.00,WeatherDisplay:10.37,2013-01-12 20:44:00,
2013-01-12 14:49:00,13.3,2.3,29.93,West,272,11.5,11.5,61,0.00,SCT,,0.00,WeatherDisplay:10.37,2013-01-12 20:49:00,
2013-01-12 14:54:00,12.6,1.0,29.93,West,267,12.7,12.7,59,0.00,SCT,,0.00,WeatherDisplay:10.37,2013-01-12 20:54:00,
2013-01-12 14:59:00,12.6,1.3,29.93,West,265,15.0,15.0,60,0.00,SCT,,0.00,WeatherDisplay:10.37,2013-01-12 20:59:00,
2013-01-12 15:04:00,12.6,1.3,29.93,WSW,252,13.0,13.0,60,0.00,SCT,,0.00,WeatherDisplay:10.37,2013-01-12 21:04:00,
2013-01-12 15:09:00,12.6,1.3,29.93,WSW,255,5.8,5.8,60,0.00,SCT,,0.00,WeatherDisplay:10.37,2013-01-12 21:09:00,
2013-01-12 15:14:00,12.8,1.2,29.93,SSW,213,12.7,12.7,59,0.00,SCT,,0.00,WeatherDisplay:10.37,2013-01-12 21:14:00,
2013-01-12 15:19:00,12.8,1.5,29.94,WSW,242,5.8,5.8,60,0.00,SCT,,0.00,WeatherDisplay:10.37,2013-01-12 21:19:00,
2013-01-12 15:24:00,12.6,1.3,29.94,WSW,252,12.0,12.0,60,0.00,SCT,,0.00,WeatherDisplay:10.37,2013-01-12 21:24:00,
2013-01-12 15:29:00,12.4,1.1,29.94,West,268,11.5,11.5,60,0.00,SCT,,0.00,WeatherDisplay:10.37,2013-01-12 21:29:00,
2013-01-12 15:34:00,12.6,2.0,29.94,WSW,242,8.1,8.1,62,0.00,SCT,,0.00,WeatherDisplay:10.37,2013-01-12 21:34:00,
2013-01-12 15:39:00,12.4,2.5,29.94,West,272,10.4,10.4,64,0.00,SCT,,0.00,WeatherDisplay:10.37,2013-01-12 21:39:00,
2013-01-12 15:44:00,12.4,2.2,29.94,SSW,200,6.9,6.9,63,0.00,SCT,,0.00,WeatherDisplay:10.37,2013-01-12 21:44:00,
2013-01-12 15:49:00,12.3,2.1,29.94,WNW,298,12.7,12.7,63,0.00,SCT,,0.00,WeatherDisplay:10.37,2013-01-12 21:49:00,
2013-01-12 15:54:00,11.9,2.0,29.94,West,268,4.6,4.6,64,0.00,SCT,,0.00,WeatherDisplay:10.37,2013-01-12 21:54:00,
2013-01-12 15:59:00,11.6,1.8,29.94,West,277,6.9,6.9,64,0.00,SCT,,0.00,WeatherDisplay:10.37,2013-01-12 21:59:00,
2013-01-12 16:04:00,11.4,2.2,29.94,WSW,245,9.0,9.0,66,0.00,BKN,,0.00,WeatherDisplay:10.37,2013-01-12 22:04:00,
2013-01-12 16:09:00,10.9,1.4,29.94,WNW,299,5.0,5.0,65,0.00,BKN,,0.00,WeatherDisplay:10.37,2013-01-12 22:09:00,
2013-01-12 16:14:00,10.7,0.9,29.94,West,280,3.5,3.5,64,0.00,BKN,,0.00,WeatherDisplay:10.37,2013-01-12 22:14:00,
2013-01-12 16:19:00,10.4,0.6,29.95,West,281,11.5,11.5,64,0.00,BKN,,0.00,WeatherDisplay:10.37,2013-01-12 22:19:00,
2013-01-12 16:24:00,9.9,0.8,29.95,WSW,252,11.5,11.5,66,0.00,BKN,,0.00,WeatherDisplay:10.37,2013-01-12 22:24:00,
2013-01-12 16:29:00,9.9,0.8,29.95,West,275,8.1,8.1,66,0.00,BKN,,0.00,WeatherDisplay:10.37,2013-01-12 22:29:00,
2013-01-12 16:34:00,9.7,0.6,29.96,SSW,204,6.9,6.9,66,0.00,OVC,,0.00,WeatherDisplay:10.37,2013-01-12 22:34:00,
2013-01-12 16:39:00,9.7,0.9,29.96,WNW,290,11.5,11.5,67,0.00,OVC,,0.00,WeatherDisplay:10.37,2013-01-12 22:39:00,
2013-01-12 16:44:00,9.5,1.4,29.96,WNW,286,5.0,5.0,69,0.00,OVC,,0.00,WeatherDisplay:10.37,2013-01-12 22:44:00,
2013-01-12 16:49:00,9.3,0.9,29.97,WSW,242,12.7,12.7,68,0.00,OVC,,0.00,WeatherDisplay:10.37,2013-01-12 22:49:00,
2013-01-12 16:54:00,9.2,1.1,29.97,SW,234,10.0,10.0,69,0.00,OVC,,0.00,WeatherDisplay:10.37,2013-01-12 22:54:00,
2013-01-12 16:59:00,9.0,0.9,29.97,West,272,5.8,5.8,69,0.00,OVC,,0.00,WeatherDisplay:10.37,2013-01-12 22:59:00,
2013-01-12 17:04:00,9.0,1.2,29.98,SW,217,6.9,6.9,70,0.00,BKN,,0.00,WeatherDisplay:10.37,2013-01-12 23:04:00,
2013-01-12 17:09:00,9.0,1.2,29.98,West,261,11.5,11.5,70,0.00,BKN,,0.00,WeatherDisplay:10.37,2013-01-12 23:09:00,
2013-01-12 17:14:00,8.6,0.8,29.98,West,262,10.4,10.4,70,0.00,BKN,,0.00,WeatherDisplay:10.37,2013-01-12 23:14:00,
2013-01-12 17:19:00,8.4,0.6,29.99,West,274,5.0,5.0,70,0.00,BKN,,0.00,WeatherDisplay:10.37,2013-01-12 23:19:00,
2013-01-12 17:24:00,8.3,0.5,29.99,West,279,5.0,5.0,70,0.00,BKN,,0.00,WeatherDisplay:10.37,2013-01-12 23:24:00,
2013-01-12 17:29:00,8.3,0.2,29.99,WNW,293,3.5,3.5,69,0.00,BKN,,0.00,WeatherDisplay:10.37,2013-01-12 23:29:00,
2013-01-12 17:34:00,8.3,0.2,29.98,WNW,301,3.5,3.5,69,0.00,SCT,,0.00,WeatherDisplay:10.37,2013-01-12 23:34:00,
2013-01-12 17:39:00,8.1,0.0,29.98,West,279,5.8,5.8,69,0.00,SCT,,0.00,WeatherDisplay:10.37,2013-01-12 23:39:00,
2013-01-12 17:44:00,7.9,-0.2,29.98,West,271,11.5,11.5,69,0.00,SCT,,0.00,WeatherDisplay:10.37,2013-01-12 23:44:00,
2013-01-12 17:49:00,7.9,0.1,29.97,WNW,297,5.8,5.8,70,0.00,CLR,,0.00,WeatherDisplay:10.37,2013-01-12 23:49:00,
2013-01-12 17:54:00,7.9,0.4,29.97,West,262,4.6,4.6,71,0.00,CLR,,0.00,WeatherDisplay:10.37,2013-01-12 23:54:00,
2013-01-12 17:59:00,7.7,0.5,29.97,West,276,5.8,5.8,72,0.00,CLR,,0.00,WeatherDisplay:10.37,2013-01-12 23:59:00,
2013-01-12 18:04:00,7.6,0.5,29.97,WNW,282,6.9,6.9,72,0.00,CLR,,0.00,WeatherDisplay:10.37,2013-01-13 00:04:00,
2013-01-12 18:09:00,7.4,0.3,29.97,West,277,4.6,4.6,72,0.00,CLR,,0.00,WeatherDisplay:10.37,2013-01-13 00:09:00,
2013-01-12 18:14:00,7.2,-0.2,29.97,NNW,328,10.4,10.4,71,0.00,CLR,,0.00,WeatherDisplay:10.37,2013-01-13 00:14:00,
2013-01-12 18:19:00,7.2,-0.8,29.98,West,273,4.6,4.6,69,0.00,CLR,,0.00,WeatherDisplay:10.37,2013-01-13 00:19:00,
2013-01-12 18:24:00,7.2,-1.5,29.98,West,281,5.8,5.8,67,0.00,CLR,,0.00,WeatherDisplay:10.37,2013-01-13 00:24:00,
2013-01-12 18:29:00,7.0,-1.7,29.98,WNW,300,3.5,3.5,67,0.00,CLR,,0.00,WeatherDisplay:10.37,2013-01-13 00:29:00,
2013-01-12 18:34:00,7.0,-1.7,29.99,WNW,300,3.0,3.0,67,0.00,CLR,,0.00,WeatherDisplay:10.37,2013-01-13 00:34:00,
2013-01-12 18:39:00,7.0,-1.7,29.99,West,271,5.0,5.0,67,0.00,CLR,,0.00,WeatherDisplay:10.37,2013-01-13 00:39:00,
2013-01-12 18:44:00,7.0,-1.7,29.99,West,273,9.2,9.2,67,0.00,CLR,,0.00,WeatherDisplay:10.37,2013-01-13 00:44:00,
2013-01-12 18:49:00,6.9,-1.8,29.99,West,281,5.8,5.8,67,0.00,CLR,,0.00,WeatherDisplay:10.37,2013-01-13 00:49:00,
2013-01-12 18:54:00,6.9,-1.8,29.99,West,269,9.2,9.2,67,0.00,CLR,,0.00,WeatherDisplay:10.37,2013-01-13 00:54:00,
2013-01-12 18:59:00,6.9,-1.8,29.99,West,261,3.5,3.5,67,0.00,CLR,,0.00,WeatherDisplay:10.37,2013-01-13 00:59:00,
2013-01-12 19:04:00,6.9,-1.4,30.00,WSW,258,3.5,3.5,68,0.00,CLR,,0.00,WeatherDisplay:10.37,2013-01-13 01:04:00,
2013-01-12 19:09:00,6.7,-1.6,30.00,West,275,10.4,10.4,68,0.00,CLR,,0.00,WeatherDisplay:10.37,2013-01-13 01:09:00,
2013-01-12 19:14:00,6.7,-1.9,30.00,West,259,6.0,6.0,67,0.00,CLR,,0.00,WeatherDisplay:10.37,2013-01-13 01:14:00,
2013-01-12 19:19:00,6.7,-1.9,30.00,NW,308,7.0,7.0,67,0.00,CLR,,0.00,WeatherDisplay:10.37,2013-01-13 01:19:00,
2013-01-12 19:24:00,6.7,-1.9,30.00,NW,320,5.8,5.8,67,0.00,CLR,,0.00,WeatherDisplay:10.37,2013-01-13 01:24:00,
2013-01-12 19:29:00,6.7,-1.6,30.00,West,272,7.0,7.0,68,0.00,CLR,,0.00,WeatherDisplay:10.37,2013-01-13 01:29:00,
2013-01-12 19:34:00,6.5,-1.8,29.99,NNW,329,4.0,4.0,68,0.00,CLR,,0.00,WeatherDisplay:10.37,2013-01-13 01:34:00,
2013-01-12 19:39:00,6.5,-1.5,29.99,West,274,3.5,3.5,69,0.00,CLR,,0.00,WeatherDisplay:10.37,2013-01-13 01:39:00,
2013-01-12 19:44:00,6.5,-1.5,29.99,WNW,288,4.6,4.6,69,0.00,CLR,,0.00,WeatherDisplay:10.37,2013-01-13 01:44:00,
2013-01-12 19:49:00,6.5,-1.5,30.00,West,279,5.8,5.8,69,0.00,CLR,,0.00,WeatherDisplay:10.37,2013-01-13 01:49:00,
2013-01-12 19:54:00,6.5,-1.5,30.00,WNW,283,3.5,3.5,69,0.00,CLR,,0.00,WeatherDisplay:10.37,2013-01-13 01:54:00,
2013-01-12 19:59:00,6.5,-1.5,30.00,West,273,4.6,4.6,69,0.00,CLR,,0.00,WeatherDisplay:10.37,2013-01-13 01:59:00,
2013-01-12 20:04:00,6.5,-1.8,30.01,West,273,6.0,6.0,68,0.00,SCT,,0.00,WeatherDisplay:10.37,2013-01-13 02:04:00,
2013-01-12 20:09:00,6.3,-2.0,30.01,WNW,287,11.5,11.5,68,0.00,SCT,,0.00,WeatherDisplay:10.37,2013-01-13 02:09:00,
2013-01-12 20:14:00,6.3,-2.0,30.01,NNW,335,10.4,10.4,68,0.00,SCT,,0.00,WeatherDisplay:10.37,2013-01-13 02:14:00,
2013-01-12 20:19:00,6.3,-2.0,30.01,West,261,8.1,8.1,68,0.00,SCT,,0.00,WeatherDisplay:10.37,2013-01-13 02:19:00,
2013-01-12 20:24:00,6.3,-2.0,30.01,WSW,239,4.6,4.6,68,0.00,SCT,,0.00,WeatherDisplay:10.37,2013-01-13 02:24:00,
2013-01-12 20:29:00,6.1,-2.2,30.01,West,260,4.6,4.6,68,0.00,SCT,,0.00,WeatherDisplay:10.37,2013-01-13 02:29:00,
2013-01-12 20:34:00,6.1,-2.2,30.02,WNW,297,1.1,1.1,68,0.00,SCT,,0.00,WeatherDisplay:10.37,2013-01-13 02:34:00,
2013-01-12 20:39:00,6.1,-2.2,30.02,NW,308,4.0,4.0,68,0.00,SCT,,0.00,WeatherDisplay:10.37,2013-01-13 02:39:00,
2013-01-12 20:44:00,6.1,-2.2,30.02,West,275,3.5,3.5,68,0.00,SCT,,0.00,WeatherDisplay:10.37,2013-01-13 02:44:00,
2013-01-12 20:49:00,6.1,-1.9,30.02,WNW,292,5.8,5.8,69,0.00,CLR,,0.00,WeatherDisplay:10.37,2013-01-13 02:49:00,
2013-01-12 20:54:00,6.1,-1.6,30.02,WSW,258,3.5,3.5,70,0.00,CLR,,0.00,WeatherDisplay:10.37,2013-01-13 02:54:00,
2013-01-12 20:59:00,6.1,-1.6,30.02,WNW,284,5.0,5.0,70,0.00,CLR,,0.00,WeatherDisplay:10.37,2013-01-13 02:59:00,
2013-01-12 21:04:00,6.1,-1.6,30.03,West,274,9.2,9.2,70,0.00,CLR,,0.00,WeatherDisplay:10.37,2013-01-13 03:04:00,
2013-01-12 21:09:00,6.3,-1.7,30.03,NW,304,6.9,6.9,69,0.00,CLR,,0.00,WeatherDisplay:10.37,2013-01-13 03:09:00,
2013-01-12 21:14:00,6.1,-1.9,30.03,WNW,298,5.8,5.8,69,0.00,CLR,,0.00,WeatherDisplay:10.37,2013-01-13 03:14:00,
2013-01-12 21:19:00,6.1,-2.2,30.01,WNW,284,5.8,5.8,68,0.00,CLR,,0.00,WeatherDisplay:10.37,2013-01-13 03:19:00,
2013-01-12 21:24:00,6.0,-2.3,30.01,WNW,293,9.2,9.2,68,0.00,CLR,,0.00,WeatherDisplay:10.37,2013-01-13 03:24:00,
2013-01-12 21:29:00,6.0,-2.3,30.01,WNW,301,3.5,3.5,68,0.00,CLR,,0.00,WeatherDisplay:10.37,2013-01-13 03:29:00,
2013-01-12 21:34:00,5.8,-2.5,30.02,WNW,302,10.4,10.4,68,0.00,CLR,,0.00,WeatherDisplay:10.37,2013-01-13 03:34:00,
2013-01-12 21:39:00,5.8,-2.5,30.02,NNW,331,4.6,4.6,68,0.00,CLR,,0.00,WeatherDisplay:10.37,2013-01-13 03:39:00,
2013-01-12 21:44:00,5.8,-2.2,30.02,WNW,301,5.8,5.8,69,0.00,CLR,,0.00,WeatherDisplay:10.37,2013-01-13 03:44:00,
2013-01-12 21:49:00,5.8,-1.9,30.02,WNW,299,5.8,5.8,70,0.00,CLR,,0.00,WeatherDisplay:10.37,2013-01-13 03:49:00,
2013-01-12 21:54:00,5.8,-1.9,30.02,NNW,333,11.5,11.5,70,0.00,CLR,,0.00,WeatherDisplay:10.37,2013-01-13 03:54:00,
2013-01-12 21:59:00,5.8,-2.2,30.02,NW,307,9.2,9.2,69,0.00,CLR,,0.00,WeatherDisplay:10.37,2013-01-13 03:59:00,
2013-01-12 22:04:00,5.6,-2.7,30.02,NW,325,6.9,6.9,68,0.00,SCT,,0.00,WeatherDisplay:10.37,2013-01-13 04:04:00,
2013-01-12 22:09:00,5.4,-3.2,30.02,NNW,329,4.0,4.0,67,0.00,SCT,,0.00,WeatherDisplay:10.37,2013-01-13 04:09:00,
2013-01-12 22:14:00,5.4,-3.2,30.02,NNW,346,6.9,6.9,67,0.00,SCT,,0.00,WeatherDisplay:10.37,2013-01-13 04:14:00,
2013-01-12 22:19:00,5.4,-2.9,30.02,WNW,286,5.8,5.8,68,0.00,SCT,,0.00,WeatherDisplay:10.37,2013-01-13 04:19:00,
2013-01-12 22:24:00,5.4,-2.9,30.02,WNW,295,5.8,5.8,68,0.00,SCT,,0.00,WeatherDisplay:10.37,2013-01-13 04:24:00,
2013-01-12 22:29:00,5.4,-2.6,30.02,NNW,348,0.0,0.0,69,0.00,SCT,,0.00,WeatherDisplay:10.37,2013-01-13 04:29:00,
2013-01-12 22:34:00,5.2,-2.8,30.02,North,350,10.4,10.4,69,0.00,BKN,,0.00,WeatherDisplay:10.37,2013-01-13 04:34:00,
2013-01-12 22:39:00,5.0,-3.3,30.02,NW,321,4.6,4.6,68,0.00,BKN,,0.00,WeatherDisplay:10.37,2013-01-13 04:39:00,
2013-01-12 22:44:00,4.8,-3.8,30.02,NW,326,6.9,6.9,67,0.00,BKN,,0.00,WeatherDisplay:10.37,2013-01-13 04:44:00,
2013-01-12 22:49:00,4.8,-3.8,30.02,NNE,14,7.0,7.0,67,0.00,OVC,,0.00,WeatherDisplay:10.37,2013-01-13 04:49:00,
2013-01-12 22:54:00,4.8,-3.8,30.02,NNW,327,2.3,2.3,67,0.00,OVC,,0.00,WeatherDisplay:10.37,2013-01-13 04:54:00,
2013-01-12 22:59:00,4.7,-3.6,30.02,NNW,327,3.5,3.5,68,0.00,OVC,,0.00,WeatherDisplay:10.37,2013-01-13 04:59:00,
2013-01-12 23:01:00,4.7,-3.2,30.02,NW,306,5.8,5.8,69,0.00,SCT,,0.00,WeatherDisplay:10.37,2013-01-13 05:01:00,
2013-01-12 23:03:00,4.7,-3.2,30.02,NNW,328,6.9,6.9,69,0.00,OVC,,0.00,WeatherDisplay:10.37,2013-01-13 05:03:00,
2013-01-12 23:08:00,4.7,-3.6,30.02,NNW,339,6.9,6.9,68,0.00,OVC,,0.00,WeatherDisplay:10.37,2013-01-13 05:08:00,
2013-01-12 23:13:00,4.5,-3.7,30.02,NW,320,9.2,9.2,68,0.00,OVC,,0.00,WeatherDisplay:10.37,2013-01-13 05:13:00,
2013-01-12 23:18:00,4.5,-3.4,30.02,WNW,294,4.6,4.6,69,0.00,OVC,,0.00,WeatherDisplay:10.37,2013-01-13 05:18:00,
2013-01-12 23:23:00,4.5,-3.4,30.02,NW,305,6.9,6.9,69,0.00,OVC,,0.00,WeatherDisplay:10.37,2013-01-13 05:23:00,
2013-01-12 23:28:00,4.3,-3.6,30.02,NNW,342,6.9,6.9,69,0.00,OVC,,0.00,WeatherDisplay:10.37,2013-01-13 05:28:00,
2013-01-12 23:33:00,4.3,-3.6,30.02,WNW,296,6.0,6.0,69,0.00,-SN,,0.00,WeatherDisplay:10.37,2013-01-13 05:33:00,
2013-01-12 23:38:00,4.3,-3.6,30.02,WNW,282,4.6,4.6,69,0.00,-SN,,0.00,WeatherDisplay:10.37,2013-01-13 05:38:00,
2013-01-12 23:43:00,4.1,-3.8,30.02,West,259,2.3,2.3,69,0.00,-SN,,0.00,WeatherDisplay:10.37,2013-01-13 05:43:00,
2013-01-12 23:48:00,3.9,-4.0,30.02,WNW,289,3.5,3.5,69,0.00,BKN,,0.00,WeatherDisplay:10.37,2013-01-13 05:48:00,
2013-01-12 23:53:00,3.9,-4.0,30.02,WNW,290,3.5,3.5,69,0.00,BKN,,0.00,WeatherDisplay:10.37,2013-01-13 05:53:00,
2013-01-12 23:58:00,3.9,-3.7,30.02,WNW,290,3.5,3.5,70,0.00,BKN,,0.00,WeatherDisplay:10.37,2013-01-13 05:58:00,